| time (UTC) | temp C | wind direction | speed KPH | gust KPH | rain 1hr cm | rain 24hr cm | rain mn cm | humidity % | barometer mb |
| 20260506144517 | 8 | 274 | 0.0 | 0.0 | 0.00 | 0.03 | 0.03 | 96 | 1021.6 |
| 20260506144513 | 8 | 274 | 0.0 | 0.0 | 0.00 | 0.03 | 0.03 | 96 | 1022.9 |
| 20260506143016 | 8 | 274 | 0.0 | 0.0 | 0.00 | 0.03 | 0.03 | 96 | 1021.6 |
| 20260506143003 | 8 | 274 | 0.0 | 0.0 | 0.00 | 0.03 | 0.03 | 97 | 1022.9 |
| 20260506141512 | 8 | 274 | 0.0 | 0.0 | 0.00 | 0.03 | 0.03 | 96 | 1021.6 |
| 20260506141503 | 8 | 274 | 0.0 | 0.0 | 0.00 | 0.03 | 0.03 | 97 | 1022.8 |
| 20260506140124 | 8 | 274 | 0.0 | 0.0 | 0.00 | 0.03 | 0.03 | 97 | 1022.6 |
| 20260506140009 | 8 | 274 | 0.0 | 0.0 | 0.00 | 0.03 | 0.03 | 96 | 1021.4 |
| 20260506134558 | 8 | 275 | 0.0 | 0.0 | 0.00 | 0.03 | 0.03 | 97 | 1022.5 |
| 20260506134523 | 8 | 275 | 0.0 | 0.0 | 0.00 | 0.03 | 0.03 | 96 | 1021.2 |
| 20260506133133 | 8 | 275 | 0.0 | 0.0 | 0.00 | 0.03 | 0.03 | 97 | 1022.4 |
| 20260506133021 | 8 | 275 | 0.0 | 0.0 | 0.00 | 0.03 | 0.03 | 96 | 1021.1 |
| 20260506131557 | 8 | 275 | 0.0 | 0.0 | 0.00 | 0.03 | 0.03 | 97 | 1022.2 |
| 20260506131520 | 8 | 275 | 0.0 | 0.0 | 0.00 | 0.03 | 0.03 | 96 | 1020.9 |
| 20260506130136 | 8 | 275 | 0.0 | 0.0 | 0.00 | 0.03 | 0.03 | 97 | 1022.2 |
| 20260506130020 | 8 | 275 | 0.0 | 0.0 | 0.00 | 0.03 | 0.03 | 96 | 1020.9 |
| 20260506124553 | 8 | 275 | 0.0 | 0.0 | 0.00 | 0.03 | 0.03 | 97 | 1022.4 |
| 20260506124514 | 8 | 275 | 0.0 | 0.0 | 0.00 | 0.03 | 0.03 | 96 | 1020.8 |
| 20260506123048 | 8 | 275 | 0.0 | 0.0 | 0.00 | 0.03 | 0.03 | 97 | 1022.0 |
| 20260506123014 | 8 | 275 | 0.0 | 0.0 | 0.00 | 0.03 | 0.03 | 96 | 1020.7 |
| 20260506121552 | 8 | 275 | 0.0 | 0.0 | 0.03 | 0.03 | 0.03 | 97 | 1021.9 |
| 20260506121525 | 8 | 275 | 0.0 | 0.0 | 0.03 | 0.03 | 0.03 | 96 | 1020.7 |
| 20260506120043 | 8 | 275 | 0.0 | 0.0 | 0.03 | 0.03 | 0.03 | 96 | 1022.0 |
| 20260506120034 | 8 | 275 | 0.0 | 0.0 | 0.03 | 0.03 | 0.03 | 96 | 1020.6 |
| 20260506114543 | 8 | 275 | 0.0 | 0.0 | 0.03 | 0.03 | 0.03 | 96 | 1021.8 |
| 20260506114526 | 8 | 275 | 0.0 | 0.0 | 0.03 | 0.03 | 0.03 | 96 | 1020.5 |
| 20260506113044 | 8 | 275 | 0.0 | 0.0 | 0.03 | 0.03 | 0.03 | 96 | 1021.7 |
| 20260506113020 | 8 | 275 | 0.0 | 0.0 | 0.03 | 0.03 | 0.03 | 96 | 1020.4 |
| 20260506111539 | 8 | 275 | 0.0 | 0.0 | 0.00 | 0.00 | 0.00 | 96 | 1021.7 |
| 20260506111514 | 8 | 275 | 0.0 | 0.0 | 0.00 | 0.00 | 0.00 | 96 | 1020.3 |
| 20260506110042 | 8 | 275 | 0.0 | 0.0 | 0.00 | 0.00 | 0.00 | 96 | 1021.5 |
| 20260506110014 | 8 | 275 | 0.0 | 0.0 | 0.00 | 0.00 | 0.00 | 96 | 1020.1 |
| 20260506104538 | 8 | 275 | 0.0 | 0.0 | 0.00 | 0.00 | 0.00 | 96 | 1021.5 |
| 20260506104508 | 8 | 275 | 0.0 | 0.0 | 0.00 | 0.00 | 0.00 | 96 | 1020.1 |
| 20260506103040 | 8 | 275 | 0.0 | 0.0 | 0.00 | 0.00 | 0.00 | 96 | 1021.4 |
| 20260506103015 | 8 | 275 | 0.0 | 0.0 | 0.00 | 0.00 | 0.00 | 96 | 1019.9 |
| 20260506101538 | 8 | 275 | 0.0 | 0.0 | 0.00 | 0.00 | 0.00 | 96 | 1021.3 |
| 20260506101505 | 8 | 275 | 0.0 | 0.0 | 0.00 | 0.00 | 0.00 | 96 | 1019.7 |
| 20260506100038 | 8 | 275 | 0.0 | 0.0 | 0.00 | 0.00 | 0.00 | 96 | 1021.4 |
| 20260506100005 | 8 | 275 | 0.0 | 0.0 | 0.00 | 0.00 | 0.00 | 96 | 1019.8 |
| 20260506094536 | 8 | 275 | 0.0 | 0.0 | 0.00 | 0.05 | 0.00 | 96 | 1021.4 |
| 20260506094529 | 8 | 275 | 0.0 | 0.0 | 0.00 | 0.00 | 0.00 | 96 | 1019.7 |
| 20260506093036 | 8 | 274 | 0.0 | 0.0 | 0.00 | 0.05 | 0.00 | 96 | 1021.2 |
| 20260506093024 | 8 | 274 | 0.0 | 0.0 | 0.00 | 0.03 | 0.00 | 96 | 1019.7 |
| 20260506091535 | 8 | 274 | 0.0 | 0.0 | 0.00 | 0.05 | 0.00 | 96 | 1021.4 |
| 20260506091513 | 8 | 274 | 0.0 | 0.0 | 0.00 | 0.03 | 0.00 | 96 | 1019.8 |
| 20260506090039 | 8 | 274 | 0.0 | 0.0 | 0.00 | 0.05 | 0.00 | 96 | 1021.4 |
| 20260506090008 | 8 | 274 | 0.0 | 0.0 | 0.00 | 0.05 | 0.00 | 96 | 1019.8 |
| 20260506084537 | 8 | 274 | 0.0 | 0.0 | 0.00 | 0.25 | 0.00 | 96 | 1021.3 |
| 20260506084506 | 8 | 274 | 0.0 | 0.0 | 0.00 | 0.13 | 0.00 | 96 | 1019.8 |
| 20260506083033 | 8 | 274 | 0.0 | 0.0 | 0.00 | 0.25 | 0.00 | 96 | 1021.4 |
| 20260506083022 | 8 | 274 | 0.0 | 0.0 | 0.00 | 0.18 | 0.00 | 96 | 1019.8 |
| 20260506081532 | 8 | 274 | 0.0 | 0.0 | 0.00 | 0.25 | 0.00 | 96 | 1021.4 |
| 20260506081519 | 8 | 275 | 0.0 | 0.0 | 0.00 | 0.23 | 0.00 | 96 | 1019.9 |
| 20260506073028 | 8 | 274 | 0.0 | 0.0 | 0.00 | 0.25 | 0.00 | 96 | 1021.2 |
| 20260506073010 | 8 | 274 | 0.0 | 0.0 | 0.00 | 0.25 | 0.00 | 96 | 1019.8 |
| 20260506071527 | 8 | 274 | 0.0 | 0.0 | 0.00 | 0.25 | 0.00 | 96 | 1021.0 |
| 20260506071509 | 8 | 274 | 0.0 | 0.0 | 0.00 | 0.25 | 0.00 | 96 | 1019.6 |
| 20260506061524 | 8 | 274 | 0.0 | 0.0 | 0.00 | 0.28 | 0.25 | 96 | 1019.3 |
| 20260506061521 | 8 | 274 | 0.0 | 0.0 | 0.00 | 0.28 | 0.25 | 96 | 1020.7 |
| 20260506044521 | 8 | 274 | 0.0 | 0.0 | 0.00 | 0.36 | 0.25 | 96 | 1018.6 |
| 20260506044515 | 8 | 274 | 0.0 | 0.0 | 0.00 | 0.38 | 0.25 | 96 | 1020.2 |
| 20260506043016 | 8 | 274 | 0.0 | 0.0 | 0.00 | 0.36 | 0.25 | 96 | 1018.5 |
| 20260506043014 | 8 | 274 | 0.0 | 0.0 | 0.00 | 0.38 | 0.25 | 96 | 1020.1 |
| 20260506041526 | 8 | 274 | 0.0 | 0.0 | 0.00 | 0.38 | 0.25 | 96 | 1018.3 |
| 20260506041512 | 8 | 274 | 0.0 | 0.0 | 0.00 | 0.38 | 0.25 | 96 | 1019.9 |
| 20260506040027 | 8 | 274 | 0.0 | 0.0 | 0.00 | 0.38 | 0.25 | 96 | 1018.2 |
| 20260506040011 | 8 | 274 | 0.0 | 0.0 | 0.00 | 0.38 | 0.25 | 96 | 1019.7 |
| 20260506034525 | 8 | 274 | 0.0 | 0.0 | 0.00 | 0.41 | 0.25 | 96 | 1018.0 |
| 20260506034511 | 8 | 274 | 0.0 | 0.0 | 0.00 | 0.56 | 0.25 | 96 | 1019.5 |
| 20260506033024 | 8 | 274 | 0.0 | 0.0 | 0.00 | 0.48 | 0.25 | 96 | 1017.8 |
| 20260506033010 | 8 | 274 | 0.0 | 0.0 | 0.00 | 0.56 | 0.25 | 96 | 1019.4 |
| 20260506031523 | 8 | 274 | 0.0 | 0.0 | 0.00 | 0.53 | 0.25 | 96 | 1017.4 |
| 20260506031518 | 8 | 274 | 0.0 | 0.0 | 0.00 | 0.56 | 0.25 | 96 | 1019.1 |
| 20260506030019 | 8 | 274 | 0.0 | 0.0 | 0.00 | 0.56 | 0.25 | 96 | 1017.2 |
| 20260506030007 | 8 | 274 | 0.0 | 0.0 | 0.00 | 0.56 | 0.25 | 96 | 1019.0 |
| 20260506024532 | 8 | 274 | 0.0 | 0.0 | 0.00 | 0.61 | 0.25 | 96 | 1017.3 |
| 20260506024507 | 8 | 274 | 0.0 | 0.0 | 0.00 | 0.71 | 0.25 | 96 | 1019.0 |
| 20260506023026 | 8 | 274 | 0.0 | 0.0 | 0.00 | 0.66 | 0.25 | 96 | 1017.1 |
| 20260506023005 | 8 | 274 | 0.0 | 0.0 | 0.00 | 0.71 | 0.25 | 96 | 1018.7 |
| 20260506021507 | 8 | 274 | 0.0 | 0.0 | 0.00 | 0.74 | 0.25 | 96 | 1017.1 |
| 20260506021505 | 8 | 274 | 0.0 | 0.0 | 0.00 | 0.71 | 0.25 | 96 | 1018.8 |
| 20260506020007 | 8 | 274 | 0.0 | 0.0 | 0.00 | 0.74 | 0.25 | 96 | 1017.0 |
| 20260506020004 | 8 | 274 | 0.0 | 0.0 | 0.00 | 0.71 | 0.25 | 96 | 1018.6 |
| 20260506014506 | 8 | 274 | 0.0 | 0.0 | 0.00 | 0.79 | 0.25 | 96 | 1017.1 |
| 20260506014504 | 8 | 274 | 0.0 | 0.0 | 0.00 | 0.79 | 0.25 | 96 | 1018.6 |
| 20260506013004 | 8 | 274 | 0.0 | 0.0 | 0.00 | 0.79 | 0.25 | 96 | 1017.1 |
| 20260506011509 | 8 | 274 | 0.0 | 0.0 | 0.00 | 0.79 | 0.25 | 96 | 1018.6 |
| 20260506011504 | 8 | 274 | 0.0 | 0.0 | 0.00 | 0.79 | 0.25 | 96 | 1017.1 |
| 20260506010120 | 8 | 274 | 0.0 | 0.0 | 0.00 | 0.79 | 0.25 | 96 | 1018.4 |
| 20260506010012 | 8 | 274 | 0.0 | 0.0 | 0.00 | 0.79 | 0.25 | 96 | 1016.8 |
| 20260506004558 | 8 | 274 | 0.0 | 0.0 | 0.00 | 0.81 | 0.25 | 96 | 1018.3 |
| 20260506004510 | 8 | 274 | 0.0 | 0.0 | 0.00 | 0.79 | 0.25 | 96 | 1016.7 |
| 20260506003119 | 8 | 274 | 0.0 | 0.0 | 0.00 | 0.81 | 0.25 | 96 | 1018.2 |
| 20260506003005 | 8 | 274 | 0.0 | 0.0 | 0.00 | 0.79 | 0.25 | 96 | 1016.6 |
| 20260506001604 | 8 | 274 | 0.0 | 0.0 | 0.00 | 0.81 | 0.25 | 96 | 1018.2 |
| 20260506001504 | 8 | 274 | 0.0 | 0.0 | 0.00 | 0.79 | 0.25 | 96 | 1016.7 |
| 20260506000056 | 8 | 274 | 0.0 | 0.0 | 0.00 | 0.81 | 0.25 | 96 | 1018.1 |
| 20260506000004 | 8 | 274 | 0.0 | 0.0 | 0.00 | 0.81 | 0.25 | 96 | 1016.5 |
| 20260505234555 | 8 | 274 | 0.0 | 0.0 | 0.00 | 1.02 | 0.25 | 96 | 1018.1 |
| 20260505234532 | 8 | 274 | 0.0 | 0.0 | 0.00 | 0.84 | 0.25 | 96 | 1016.5 |
| 20260505233105 | 8 | 274 | 0.0 | 0.0 | 0.00 | 1.02 | 0.25 | 96 | 1018.1 |
| 20260505233017 | 8 | 274 | 0.0 | 0.0 | 0.00 | 0.91 | 0.25 | 96 | 1016.5 |
| 20260505231554 | 8 | 274 | 0.0 | 0.0 | 0.00 | 1.02 | 0.25 | 96 | 1018.1 |
| 20260505231514 | 8 | 274 | 0.0 | 0.0 | 0.00 | 0.97 | 0.25 | 96 | 1016.5 |
| 20260505230057 | 8 | 274 | 0.0 | 0.0 | 0.00 | 1.02 | 0.25 | 96 | 1018.0 |
| 20260505230012 | 8 | 274 | 0.0 | 0.0 | 0.00 | 1.02 | 0.25 | 96 | 1016.4 |
| 20260505224553 | 8 | 274 | 0.0 | 0.0 | 0.00 | 1.12 | 0.25 | 96 | 1017.9 |
| 20260505224504 | 8 | 274 | 0.0 | 0.0 | 0.00 | 1.04 | 0.25 | 96 | 1016.3 |
| 20260505223052 | 8 | 272 | 0.0 | 0.0 | 0.00 | 1.12 | 0.25 | 96 | 1018.1 |
| 20260505223009 | 8 | 272 | 0.0 | 0.0 | 0.00 | 1.09 | 0.25 | 96 | 1016.4 |
| 20260505221555 | 8 | 266 | 0.0 | 0.0 | 0.00 | 1.12 | 0.25 | 96 | 1018.2 |
| 20260505221518 | 8 | 266 | 0.0 | 0.0 | 0.00 | 1.12 | 0.25 | 96 | 1016.5 |
| 20260505220051 | 8 | 266 | 0.0 | 0.0 | 0.00 | 1.12 | 0.25 | 96 | 1018.1 |
| 20260505220018 | 8 | 265 | 0.0 | 0.0 | 0.00 | 1.12 | 0.25 | 96 | 1016.4 |
| 20260505214609 | 8 | 265 | 0.0 | 0.0 | 0.00 | 1.19 | 0.25 | 96 | 1018.2 |
| 20260505214514 | 8 | 265 | 0.0 | 0.0 | 0.00 | 1.14 | 0.25 | 95 | 1016.4 |
| 20260505213051 | 8 | 281 | 0.0 | 3.2 | 0.00 | 1.19 | 0.25 | 96 | 1018.3 |
| 20260505213013 | 8 | 281 | 0.0 | 3.2 | 0.00 | 1.17 | 0.25 | 95 | 1016.5 |
| 20260505211550 | 8 | 269 | 0.0 | 1.6 | 0.00 | 1.19 | 0.25 | 96 | 1018.2 |
| 20260505211508 | 8 | 270 | 0.0 | 1.6 | 0.00 | 1.19 | 0.25 | 95 | 1016.5 |
| 20260505210048 | 8 | 269 | 0.0 | 1.6 | 0.00 | 1.19 | 0.25 | 96 | 1018.2 |
| 20260505210008 | 8 | 269 | 0.0 | 3.2 | 0.00 | 1.19 | 0.25 | 95 | 1016.4 |
| 20260505204549 | 8 | 269 | 1.6 | 6.4 | 0.00 | 1.22 | 0.25 | 95 | 1018.2 |
| 20260505204527 | 8 | 269 | 1.6 | 6.4 | 0.00 | 1.19 | 0.25 | 95 | 1016.4 |
| 20260505203048 | 8 | 269 | 0.0 | 6.4 | 0.00 | 1.22 | 0.25 | 95 | 1018.2 |
| 20260505203023 | 8 | 269 | 0.0 | 6.4 | 0.00 | 1.19 | 0.25 | 95 | 1016.3 |
| 20260505201552 | 8 | 284 | 0.0 | 1.6 | 0.00 | 1.22 | 0.25 | 95 | 1018.0 |
| 20260505201514 | 8 | 284 | 0.0 | 1.6 | 0.00 | 1.19 | 0.25 | 95 | 1016.2 |
| 20260505200045 | 8 | 284 | 0.0 | 3.2 | 0.00 | 1.22 | 0.25 | 95 | 1018.0 |
| 20260505200021 | 8 | 284 | 0.0 | 3.2 | 0.00 | 1.22 | 0.25 | 95 | 1016.2 |
| 20260505194544 | 8 | 284 | 1.6 | 4.8 | 0.00 | 1.37 | 0.25 | 95 | 1018.1 |
| 20260505194510 | 8 | 284 | 0.0 | 4.8 | 0.00 | 1.27 | 0.25 | 95 | 1016.2 |
| 20260505193042 | 8 | 284 | 0.0 | 4.8 | 0.00 | 1.37 | 0.25 | 95 | 1018.2 |
| 20260505193026 | 8 | 284 | 1.6 | 4.8 | 0.00 | 1.32 | 0.25 | 95 | 1016.2 |
| 20260505191550 | 7 | 284 | 1.6 | 4.8 | 0.00 | 1.37 | 0.25 | 95 | 1018.2 |
| 20260505191524 | 7 | 284 | 1.6 | 4.8 | 0.00 | 1.32 | 0.25 | 95 | 1016.2 |
| 20260505190050 | 8 | 271 | 3.2 | 6.4 | 0.00 | 1.37 | 0.25 | 96 | 1018.2 |
| 20260505190022 | 8 | 271 | 3.2 | 6.4 | 0.00 | 1.37 | 0.25 | 95 | 1016.1 |
| 20260505184543 | 7 | 255 | 0.0 | 3.2 | 0.00 | 1.57 | 0.25 | 96 | 1018.1 |
| 20260505184525 | 7 | 255 | 0.0 | 3.2 | 0.00 | 1.47 | 0.25 | 95 | 1016.0 |
| 20260505183057 | 7 | 255 | 1.6 | 4.8 | 0.00 | 1.57 | 0.25 | 96 | 1018.1 |
| 20260505183037 | 7 | 255 | 1.6 | 4.8 | 0.00 | 1.55 | 0.25 | 95 | 1016.1 |
| 20260505181537 | 7 | 190 | 0.0 | 0.0 | 0.00 | 1.57 | 0.25 | 96 | 1018.0 |
| 20260505181512 | 7 | 190 | 0.0 | 0.0 | 0.00 | 1.57 | 0.25 | 96 | 1015.9 |
| 20260505180037 | 7 | 190 | 0.0 | 0.0 | 0.00 | 1.57 | 0.25 | 96 | 1017.9 |
| 20260505180024 | 7 | 190 | 0.0 | 0.0 | 0.00 | 1.57 | 0.25 | 96 | 1015.8 |
| 20260505174536 | 7 | 190 | 0.0 | 0.0 | 0.00 | 1.63 | 0.25 | 96 | 1017.7 |
| 20260505174524 | 7 | 190 | 0.0 | 0.0 | 0.00 | 1.60 | 0.25 | 96 | 1015.8 |
| 20260505173042 | 7 | 190 | 0.0 | 0.0 | 0.00 | 1.63 | 0.25 | 96 | 1017.6 |
| 20260505173023 | 7 | 190 | 0.0 | 0.0 | 0.00 | 1.60 | 0.25 | 96 | 1015.7 |
| 20260505171543 | 7 | 190 | 0.0 | 0.0 | 0.00 | 1.63 | 0.25 | 96 | 1017.6 |
| 20260505171505 | 7 | 190 | 0.0 | 0.0 | 0.00 | 1.63 | 0.25 | 96 | 1015.6 |
| 20260505170031 | 7 | 190 | 0.0 | 0.0 | 0.00 | 1.63 | 0.25 | 96 | 1017.6 |
| 20260505170018 | 7 | 190 | 0.0 | 0.0 | 0.00 | 1.63 | 0.25 | 96 | 1015.6 |
| 20260505164530 | 7 | 190 | 0.0 | 0.0 | 0.00 | 1.93 | 0.25 | 96 | 1017.5 |
| 20260505164517 | 7 | 190 | 0.0 | 0.0 | 0.00 | 1.63 | 0.25 | 96 | 1015.6 |
| 20260505163029 | 7 | 190 | 0.0 | 0.0 | 0.00 | 1.93 | 0.25 | 96 | 1017.4 |
| 20260505163010 | 7 | 190 | 0.0 | 0.0 | 0.00 | 1.70 | 0.25 | 96 | 1015.5 |
| 20260505161529 | 7 | 190 | 0.0 | 0.0 | 0.00 | 1.93 | 0.25 | 96 | 1017.6 |
| 20260505161506 | 7 | 190 | 0.0 | 0.0 | 0.00 | 1.80 | 0.25 | 96 | 1015.4 |
| 20260505153026 | 6 | 190 | 0.0 | 0.0 | 0.00 | 2.01 | 0.25 | 96 | 1017.2 |
| 20260505153018 | 6 | 190 | 0.0 | 0.0 | 0.00 | 2.01 | 0.25 | 96 | 1015.2 |
| 20260505151532 | 6 | 190 | 0.0 | 0.0 | 0.00 | 2.01 | 0.25 | 96 | 1017.1 |
| 20260505151517 | 6 | 190 | 0.0 | 0.0 | 0.00 | 2.01 | 0.25 | 96 | 1015.1 |